Location: B?lite?ti
(46.2833°N, 22.7333°E)
Time: 16:53:31
(UTC+00:00)

ARGOS - Pass Details

Date: 24 January 2021
Orbit: 821 x 834 km, 98.4° (Epoch: 28 February)

Event Time Altitude Azimuth Distance (km) Brightness Sun altitude
Rises 17:54:37 0° 178° (S) 3,340 6.3 -26.2°
Reaches altitude 10° 17:57:00 10° 183° (S) 2,413 5.6 -26.6°
Maximum altitude 18:02:13 53° 260° (W) 1,007 3.8 -27.5°
Drops below altitude 10° 18:07:30 10° 337° (NNW) 2,437 5.8 -28.4°
Sets 18:09:56 0° 343° (NNW) 3,377 6.6 -28.8°
